Location: Peterborough
(44.3091°N, 78.3197°W)
Time: 06:57:04
(UTC-04:00)

Vanguard 1 Rocket - Pass Details

Date: 28 March 2023
Orbit: 655 x 4220 km, 34.3° (Epoch: 04 June)

Event Time Altitude Azimuth Distance (km) Brightness Sun altitude
Rises 18:56:20 0° 177° (S) 8,046 12.2 6.1°
Reaches altitude 10° 19:06:11 10° 158° (SSE) 7,358 11.8 4.4°
Maximum altitude 19:17:58 15° 131° (SE) 6,893 11.4 2.3°
Drops below altitude 10° 19:29:00 10° 103° (ESE) 6,974 11.3 0.3°
Enters shadow 19:37:19 - 85° (E) 7,437 11.4 -1.2°
Sets 19:37:25 0° 85° (E) 7,445 - -1.2°
